Temp
10 10 10 10 10 10 9 9 10 12 12 12 12 12 12 12 12 12 11 11 11 12 12 11 12 12 12 14 15 14 14 14 14 14 16 17 18 19 20 21 21 21 23 22 20 20 21
10 10 10 10 9 10 9 9 9 10 10 11 12 12 12 12 12 11 11 11 11 11 11 11 11 11 13 14 14 14 14 14 14 15 16 16 18 19 20 21 22 23 22 22 20 20 21
9 9 9 9 9 9 9 9 9 9 9 10 13 12 12 12 12 11 11 11 11 10 11 11 11 11 13 15 14 14 14 13 14 15 16 16 16 18 19 20 20 21 22 21 21 21 21
9 9 9 9 9 9 9 9 9 9 9 10 12 12 13 13 12 12 11 11 11 10 10 11 11 12 14 14 14 14 14 13 13 14 15 15 15 17 18 19 20 21 22 23 22 21 20
9 9 9 9 9 9 9 9 9 9 9 9 12 12 12 13 13 12 12 11 11 11 11 12 12 12 14 14 14 14 14 15 14 14 15 15 17 18 18 19 20 21 23 23 21 21 21
10 9 9 9 9 9 9 9 9 9 9 9 12 12 12 13 13 13 12 12 12 11 12 11 11 13 15 15 15 14 14 14 16 16 16 17 17 18 19 19 20 21 22 23 24 21 21
9 9 10 9 9 9 9 9 9 9 9 10 13 13 12 12 13 13 13 12 14 14 12 15 15 14 15 15 14 15 15 15 16 17 17 16 17 18 19 20 21 22 23 23 21 19 21
8 9 9 9 8 9 9 9 9 9 8 11 13 13 12 12 12 13 13 14 13 12 15 14 14 14 14 15 16 16 15 16 16 16 16 17 17 19 17 18 19 21 23 23 19 18 21
9 8 8 9 9 9 9 9 9 9 10 13 12 12 12 12 12 13 13 12 12 12 15 16 15 16 16 16 16 16 16 16 17 16 17 17 18 16 17 18 19 20 23 21 22 19 19
9 9 8 9 11 10 9 9 9 9 13 13 13 12 12 12 11 12 12 12 13 13 15 16 16 17 16 16 16 15 15 16 16 17 16 17 16 17 17 19 19 21 18 20 19 22 23
10 9 9 8 11 13 13 10 9 10 13 13 13 12 12 12 12 12 12 12 13 13 14 16 16 16 16 16 16 16 14 16 16 16 15 16 16 17 17 18 16 19 17 19 19 20 21
10 9 11 13 12 12 13 13 11 9 14 13 13 13 12 12 12 11 11 12 13 14 14 14 16 16 16 16 16 16 16 16 15 15 15 14 14 15 15 14 15 15 18 18 18 20 20
10 9 10 11 12 13 12 13 13 13 13 13 13 13 12 12 12 11 11 13 14 15 14 16 15 16 16 16 16 16 16 16 16 15 15 16 15 14 13 17 16 17 18 18 19 19 21
9 10 10 10 11 11 12 12 13 12 14 13 13 12 12 12 11 11 11 15 15 14 15 14 14 15 17 16 16 16 16 17 15 16 16 17 16 15 14 15 18 17 18 20 20 20 21
9 9 10 10 11 11 12 12 13 13 13 13 13 12 12 11 11 11 15 15 16 15 13 14 15 16 17 16 17 17 17 17 16 15 18 17 17 13 13 13 14 17 18 17 17 15 20
9 9 9 10 10 11 11 12 13 14 14 13 13 12 11 11 11 11 15 14 14 12 13 13 16 16 17 17 17 17 17 15 15 14 14 16 17 13 14 13 14 15 15 19 18 20 20
9 9 9 10 10 11 11 12 13 14 13 13 12 15 11 11 11 14 15 14 13 13 13 14 15 16 16 16 16 17 17 14 14 14 14 15 16 14 14 15 17 16 17 16 17 18 22
9 9 9 9 10 10 11 12 13 14 13 12 12 17 11 11 15 11 15 13 12 13 13 13 14 14 15 15 16 16 16 15 12 13 15 15 16 16 16 13 13 14 16 17 20 19 16
8 9 9 9 10 10 11 12 13 13 13 12 15 15 11 11 18 15 12 13 12 13 13 13 14 13 14 14 15 15 14 12 12 13 15 14 16 17 16 15 13 14 15 15 15 15 17
8 8 9 9 9 10 11 11 13 14 13 12 14 17 15 13 11 15 14 14 14 11 13 12 13 13 14 14 13 15 14 12 11 12 11 13 15 17 19 17 15 15 14 14 17 17 20
8 8 8 8 9 9 10 12 13 13 14 12 12 14 11 17 16 14 13 14 14 15 12 12 14 14 15 15 15 15 13 13 12 11 12 13 16 13 14 15 14 15 15 13 13 17 18
8 8 8 8 9 9 10 11 13 14 14 12 15 15 10 12 11 13 13 15 14 14 13 14 14 14 13 15 16 16 14 14 15 11 13 11 15 12 15 13 13 13 15 15 15 16 15
8 8 8 8 8 9 9 10 10 13 14 11 7 8 13 11 13 14 16 15 14 13 13 13 13 13 13 13 13 13 13 13 14 14 13 13 14 14 16 13 14 16 16 15 14 13 16
8 8 8 8 8 9 9 10 10 11 12 12 10 9 14 15 13 15 13 13 14 13 14 13 12 13 12 10 11 11 11 11 11 11 12 13 13 14 15 14 15 15 12 13 14 14 13
8 8 8 8 8 9 9 9 10 10 10 10 10 10 13 15 13 13 12 13 12 12 12 12 12 12 10 11 13 14 13 12 10 9 10 11 13 15 15 15 17 16 12 13 14 14 12
8 8 8 8 8 8 8 8 9 9 9 9 9 9 10 13 14 13 13 12 14 13 12 11 9 9 10 12 13 14 15 14 13 10 8 9 11 14 11 13 16 14 12 12 12 15 11
8 8 8 8 8 8 8 8 8 9 9 9 9 9 8 12 12 11 13 14 12 12 13 11 10 10 9 12 13 13 14 12 14 12 10 10 11 12 13 13 14 13 11 11 14 14 10
8 8 8 8 8 8 8 8 8 8 8 8 8 8 8 10 10 9 10 10 9 11 14 11 11 10 10 12 13 14 13 12 12 11 11 12 11 11 12 12 12 11 10 12 11 8 9
8 8 8 8 8 8 8 8 8 8 8 7 7 8 7 8 10 8 8 9 10 11 12 9 12 10 12 12 11 11 12 11 12 14 8 11 13 13 13 14 10 9 10 9 10 11 9
Height
847 845 843 840 838 836 834 832 830 829 829 829 828 828 828 826 825 822 820 816 812 809 807 808 808 809 812 813 808 806 803 802 806 807 808 808 807 806 805 802 803 803 799 801 804 807 805
848 846 844 841 838 836 834 831 829 827 827 827 827 827 826 826 824 823 821 819 816 813 810 809 810 811 812 810 807 805 803 803 804 807 808 808 806 806 804 801 800 794 800 801 805 805 804
847 846 844 842 839 836 833 831 829 827 826 825 824 825 825 825 823 823 822 821 819 816 813 812 811 812 812 807 807 806 805 805 806 807 807 808 809 807 805 804 802 801 804 804 803 803 804
847 845 844 842 840 837 833 830 828 826 824 823 822 822 822 823 822 822 822 821 819 817 815 813 813 813 809 808 807 807 805 806 806 807 808 809 809 807 807 805 803 802 801 804 802 803 807
848 845 843 842 839 837 833 830 826 824 821 820 820 820 820 820 820 820 820 819 819 817 815 814 814 813 808 807 807 806 806 807 808 809 809 809 809 807 807 806 805 804 799 799 806 805 805
848 845 843 841 839 836 832 829 825 822 820 818 818 819 819 818 818 818 818 818 818 818 816 814 813 813 808 808 807 807 807 808 809 809 809 808 808 805 806 807 805 801 799 796 796 805 806
848 846 843 841 839 835 832 828 825 822 820 817 818 817 817 817 817 817 816 817 820 819 816 811 811 810 808 809 808 808 808 809 809 808 806 809 808 807 801 801 798 792 795 797 803 810 805
850 847 844 840 838 834 831 827 823 821 819 817 817 817 817 816 816 816 815 816 819 822 813 812 813 810 807 808 807 809 810 810 808 808 808 810 808 801 805 807 806 800 794 796 811 811 806
850 847 845 840 837 834 830 826 822 820 818 817 817 816 815 816 816 816 815 816 817 818 814 811 809 808 807 808 806 807 809 808 807 808 807 807 805 808 806 807 806 803 793 800 797 812 811
848 847 844 840 836 834 830 827 822 819 818 818 817 816 815 816 819 815 816 815 815 816 813 813 809 808 808 806 808 809 809 810 809 807 811 807 810 808 806 805 805 800 806 801 806 800 801
848 846 843 841 836 833 830 826 823 818 817 817 817 816 816 817 817 817 817 816 815 816 819 812 809 808 807 809 808 809 809 807 808 810 814 814 812 807 807 809 813 802 809 805 807 804 804
848 845 842 840 838 834 830 827 822 819 816 816 816 815 816 817 817 817 816 815 816 818 824 818 811 810 809 809 809 809 808 809 812 812 813 818 818 813 815 818 816 815 809 810 810 808 815
848 846 843 840 837 835 831 827 822 818 817 816 816 816 815 816 817 817 817 817 817 814 821 816 813 811 810 810 810 810 810 809 810 817 818 812 815 817 821 814 814 812 808 817 820 822 807
848 845 843 840 838 835 832 827 823 818 816 817 816 817 816 815 816 816 817 813 815 822 818 818 817 812 808 808 811 810 810 807 814 812 813 809 818 817 823 819 808 809 809 801 811 812 800
847 845 843 841 838 835 831 828 824 818 815 815 817 818 816 817 816 816 815 814 814 818 823 820 814 811 806 808 807 807 809 808 811 813 808 807 812 823 826 823 821 809 811 811 814 826 803
847 846 843 840 838 835 831 828 824 819 815 816 817 816 818 817 817 816 812 820 821 824 823 823 812 813 807 806 807 806 805 810 812 816 815 810 811 826 824 824 823 817 818 806 808 809 805
846 845 843 841 839 835 831 828 824 820 817 817 818 815 817 816 817 816 813 818 822 822 822 819 817 814 811 809 810 804 805 815 815 814 814 811 814 823 824 816 807 816 810 815 809 805 787
845 843 842 840 838 836 831 828 824 820 817 817 817 813 819 819 814 824 816 822 825 821 822 819 818 818 814 814 809 810 808 811 819 817 812 814 810 811 809 823 824 820 812 806 796 802 815
844 842 841 839 836 834 831 828 824 820 817 816 814 815 817 816 811 814 822 821 822 822 821 819 817 818 817 816 813 813 813 820 820 818 814 814 808 806 809 818 823 816 813 815 816 814 807
843 841 840 837 836 833 831 827 824 820 817 816 816 812 815 818 823 817 818 816 816 822 821 822 819 819 816 815 818 813 814 819 822 819 821 819 812 802 791 798 805 811 813 814 804 807 787
840 840 837 836 834 832 830 827 824 820 817 816 818 817 822 813 815 819 821 820 816 814 820 820 818 817 814 812 813 813 816 816 820 821 821 818 806 814 806 806 809 802 802 809 814 794 792
838 837 836 834 832 830 829 826 823 820 817 817 816 817 826 822 825 821 821 817 818 816 818 816 816 816 818 814 809 808 811 813 809 820 817 821 807 815 804 811 811 807 799 799 798 794 797
835 834 833 832 830 829 827 824 824 821 817 818 821 821 817 824 820 818 813 814 813 817 817 816 817 816 816 813 813 813 813 813 811 809 811 813 810 810 795 809 805 793 782 787 791 796 789
831 831 831 829 828 827 826 823 821 821 819 818 818 820 817 813 819 812 815 816 815 814 813 813 815 815 816 818 819 818 817 816 815 819 817 813 810 809 799 804 798 780 790 787 786 787 790
827 827 827 826 825 824 824 823 820 820 821 818 818 817 816 812 815 812 813 812 814 814 814 813 814 815 816 814 810 807 807 811 816 823 819 819 810 803 801 799 778 776 787 787 783 784 792
822 822 822 822 823 821 821 820 820 817 818 818 818 819 815 811 805 807 807 810 806 808 811 812 817 819 818 814 810 805 799 799 802 819 827 823 819 805 814 804 785 780 788 791 789 777 794
815 816 817 817 818 817 817 817 818 818 816 815 816 816 820 810 802 805 803 800 805 807 804 812 813 816 819 812 808 805 796 802 794 800 816 816 815 806 802 799 786 783 789 792 785 784 795
807 810 810 811 812 811 813 814 813 814 815 813 813 813 816 813 804 802 801 802 806 804 797 808 810 813 815 809 803 798 799 798 799 800 803 800 803 803 805 803 796 788 793 786 787 798 796
797 801 801 804 804 805 806 808 809 809 812 811 812 809 812 813 804 800 799 797 797 796 797 805 798 800 797 798 804 802 799 805 796 787 809 799 787 786 788 779 789 791 789 792 792 790 796
Wind_Speed
12 12 12 13 13 12 10 9 7 7 6 6 7 7 8 9 12 13 16 14 10 7 5 3 5 9 8 5 4 7 10 5 16 9 8 5 8 6 10 9 8 6 7 5 4 5 3
12 12 13 13 13 13 13 12 10 7 6 7 7 6 6 6 7 9 12 14 12 10 6 5 7 10 3 5 3 6 7 13 16 10 8 6 3 2 5 8 14 8 4 5 4 5 3
13 14 14 14 14 14 14 14 13 10 7 6 6 5 5 5 7 9 11 12 11 7 4 4 7 5 2 0 2 5 1 7 11 8 6 4 1 3 1 4 3 4 7 5 5 4 3
12 13 14 15 16 16 15 15 14 11 8 6 5 5 4 5 6 8 9 10 10 8 5 5 5 1 2 3 4 2 4 5 6 5 3 1 3 1 1 1 4 7 6 9 6 7 3
12 13 15 16 17 17 18 17 16 12 9 6 5 4 4 4 5 6 6 8 8 6 3 4 3 1 1 4 2 0 2 4 5 3 3 2 2 1 3 5 9 7 12 16 7 3 4
12 13 15 16 17 18 19 19 17 13 9 6 4 3 3 3 3 3 5 6 3 0 1 1 1 2 1 2 0 3 3 8 2 6 5 3 2 4 4 8 14 18 9 15 11 7 4
12 14 14 16 18 19 21 22 19 15 10 5 4 4 2 3 2 3 3 1 3 3 3 3 2 1 2 1 1 2 3 4 4 6 6 3 6 11 10 10 7 10 13 15 4 2 5
14 15 15 16 18 19 20 21 20 16 10 5 3 4 3 2 1 1 1 2 2 1 3 3 4 4 4 2 3 2 3 2 6 8 5 5 9 6 2 5 6 10 14 10 3 1 3
15 16 16 17 18 19 19 20 19 16 8 4 5 5 2 2 2 3 3 3 2 2 3 2 2 2 0 3 2 5 4 1 6 7 6 8 4 2 3 6 9 6 15 9 4 5 2
12 15 18 19 18 19 20 20 20 16 5 4 7 6 1 4 2 3 2 2 1 1 1 5 1 1 2 1 3 1 3 1 2 5 2 2 1 3 3 7 5 9 2 7 10 10 5
13 14 17 19 18 19 20 21 20 14 4 3 7 5 3 3 2 0 2 2 1 1 2 6 1 3 2 2 4 2 1 2 2 4 2 2 1 4 4 1 2 3 2 5 3 3 4
12 14 16 18 19 20 20 23 23 17 4 2 4 5 3 1 1 1 2 4 2 2 3 2 2 1 1 1 1 1 1 4 2 3 5 2 0 2 3 2 1 8 7 5 3 1 3
11 15 17 17 17 18 19 21 24 19 7 3 1 3 2 1 1 3 4 2 1 3 2 1 2 2 1 1 2 1 1 2 1 2 1 2 2 2 2 2 2 2 4 3 2 3 2
11 13 15 16 17 19 20 21 23 19 5 0 3 2 4 3 3 3 2 2 5 0 1 2 3 2 2 2 1 1 3 4 2 1 2 4 3 2 2 3 2 4 2 2 5 5 4
10 12 14 15 17 18 19 22 24 21 6 3 5 2 2 2 3 2 2 3 2 1 2 3 2 3 3 3 2 3 3 2 0 2 3 3 1 1 1 2 3 4 5 2 4 1 2
9 12 14 15 16 18 20 21 23 22 8 4 3 3 2 0 1 1 1 2 1 2 1 2 2 1 2 2 3 3 6 3 3 1 3 1 1 0 1 2 2 2 2 2 1 5 4
9 11 15 17 19 19 19 20 22 22 8 1 1 2 1 2 2 1 2 2 2 3 2 2 2 2 1 1 3 2 1 2 1 3 1 4 3 2 2 5 4 3 3 1 2 2 2
8 10 14 16 17 19 20 20 21 21 8 0 1 1 4 2 0 1 1 0 1 2 1 2 2 1 2 2 2 2 2 2 1 1 2 3 2 3 3 2 1 2 2 3 4 4 1
8 10 13 15 16 17 19 18 19 20 14 1 0 1 2 2 2 1 1 1 1 1 2 2 2 1 2 1 3 1 1 1 1 3 3 3 3 2 3 3 2 5 5 2 2 1 5
9 11 13 15 17 18 19 18 17 19 16 1 1 1 1 2 1 1 1 1 1 2 1 1 1 1 2 1 3 2 1 1 1 1 0 3 2 4 2 2 2 4 6 8 7 4 5
9 10 11 13 15 17 18 18 16 17 16 1 3 1 2 2 1 1 1 1 1 1 2 2 1 2 2 2 1 2 2 1 2 1 0 2 4 3 6 5 4 5 6 12 12 11 7
11 11 11 12 14 16 18 17 15 15 13 3 1 1 1 2 0 2 0 2 1 1 1 1 2 1 2 3 3 3 4 4 2 3 2 1 2 1 3 2 5 7 11 12 15 13 15
13 12 11 11 12 14 15 15 16 13 8 3 1 0 1 2 1 1 1 2 2 1 2 2 2 2 3 4 2 3 4 2 1 3 6 3 3 2 3 1 4 9 15 16 8 6 9
14 13 13 11 11 12 13 13 11 12 9 2 2 1 1 2 2 3 3 3 4 4 2 2 4 3 1 2 1 1 1 2 3 1 2 4 3 2 2 2 5 3 2 1 11 4 11
17 15 13 14 12 12 12 12 8 7 7 3 2 3 2 3 2 4 6 5 2 2 3 3 3 2 2 2 1 4 2 2 2 2 3 2 2 2 3 4 8 4 4 5 7 4 4
21 20 18 16 16 14 12 12 10 6 5 4 4 3 2 2 5 1 2 4 3 3 2 3 1 0 1 0 2 3 3 2 2 2 2 1 1 4 2 4 5 3 2 1 2 4 3
25 24 22 20 20 17 15 13 12 9 6 4 4 5 3 2 3 6 5 4 5 2 1 1 4 4 0 3 4 5 4 2 4 4 4 3 3 10 8 5 7 2 4 1 3 3 4
25 26 26 25 24 21 19 17 13 11 10 6 5 8 4 2 4 6 5 5 3 3 3 4 3 2 3 5 4 3 4 4 2 3 5 7 7 5 4 5 9 4 4 5 4 2 4
30 31 30 30 28 27 23 21 18 14 13 9 6 9 10 5 4 5 10 10 6 5 4 4 1 3 5 4 3 2 4 3 4 3 1 4 5 3 8 3 1 2 1 2 3 4 5
Wind_Direction
20 19 18 18 11 7 355 344 324 298 291 296 313 337 351 356 12 24 24 26 22 34 88 93 144 154 152 211 260 318 324 215 175 175 178 180 181 179 197 199 178 226 181 165 144 179 211
14 13 12 11 9 6 359 352 337 307 303 298 299 317 330 332 347 4 5 22 28 39 78 110 138 152 175 218 329 343 358 151 167 170 167 181 190 190 231 204 200 197 185 151 169 159 153
16 10 8 6 3 4 356 353 344 329 314 314 295 303 313 311 308 315 340 352 16 28 62 103 155 163 210 122 345 1 55 170 166 172 169 185 114 222 8 172 214 170 165 162 163 156 154
19 17 11 7 3 357 357 352 347 337 320 301 291 292 289 294 301 305 312 323 340 6 45 67 160 187 255 294 295 319 99 122 167 162 105 126 212 339 266 347 166 187 211 182 149 164 146
19 16 13 7 3 0 355 353 349 341 326 293 283 291 299 294 287 303 310 312 322 336 72 125 114 274 20 317 282 262 149 152 145 146 148 80 202 106 154 199 176 196 197 209 158 173 150
19 15 12 8 5 3 358 357 351 343 329 304 279 286 301 295 293 286 307 311 306 164 6 258 190 214 22 31 104 118 128 143 153 156 139 172 182 182 174 207 192 190 197 200 190 167 195
13 12 10 8 6 5 0 358 355 347 337 311 285 278 280 288 275 274 323 35 212 197 249 308 15 313 306 36 105 100 129 152 141 191 170 163 191 195 193 209 301 198 206 189 163 57 215
6 3 7 7 5 4 2 2 359 350 341 335 337 301 274 257 208 215 55 64 44 8 310 136 276 278 237 205 125 98 166 198 175 167 146 173 204 191 125 210 236 202 193 183 115 81 229
4 360 -0 3 3 3 4 3 3 357 351 31 2 331 274 228 185 144 120 109 346 350 291 354 256 260 330 200 111 153 185 225 185 167 179 187 148 154 140 179 197 203 206 178 184 147 89
7 2 357 358 2 3 3 4 4 0 28 49 15 358 71 149 182 147 138 163 204 350 166 22 53 14 144 261 82 32 194 262 143 182 176 190 333 171 151 203 239 190 153 148 140 172 204
4 3 2 358 1 8 8 6 3 7 21 77 28 27 111 141 131 208 138 122 125 215 58 341 8 338 13 341 127 104 359 201 179 129 201 101 177 132 185 223 296 103 133 134 142 114 172
6 359 4 5 9 11 12 7 5 0 12 149 42 43 106 230 335 205 148 133 135 222 57 4 311 3 181 46 78 92 254 66 99 111 71 83 305 43 39 6 296 142 118 89 83 112 214
7 1 8 8 10 11 10 10 6 3 9 194 100 62 73 96 44 158 154 232 282 48 359 10 12 19 108 117 128 229 164 130 234 129 77 155 52 71 12 151 149 254 171 125 147 198 223
3 5 5 7 6 6 6 7 7 4 18 139 166 99 62 98 114 137 194 244 59 10 279 352 303 245 186 170 100 123 160 174 161 268 160 178 186 119 17 302 262 191 268 230 171 188 170
1 4 6 4 3 4 5 5 5 2 4 156 158 142 81 38 139 155 249 36 79 207 321 315 262 273 162 190 222 171 188 242 315 220 285 179 168 44 350 314 293 152 220 30 102 28 197
358 358 358 359 1 1 1 4 5 4 1 165 188 152 47 27 158 179 193 106 164 205 287 273 290 268 256 197 230 225 180 144 170 220 279 109 229 103 2 260 81 281 60 189 239 172 210
354 355 355 357 357 359 1 3 6 9 14 128 274 233 21 143 109 276 71 141 211 221 210 187 317 277 268 244 300 228 149 128 251 160 163 146 246 134 233 206 201 162 202 259 311 314 241
346 349 355 356 357 356 360 2 4 9 13 0 182 285 357 176 177 64 56 281 309 235 207 200 199 263 308 287 221 234 284 323 74 152 192 173 221 200 188 86 322 298 290 257 255 188 44
338 344 351 355 355 354 356 358 0 4 9 348 195 342 11 125 339 91 180 222 213 245 233 200 179 206 145 317 292 255 248 112 210 212 220 172 213 190 155 181 176 228 191 181 107 337 213
321 335 343 351 350 351 353 356 359 358 360 59 180 241 78 66 56 316 209 189 233 172 249 283 288 203 198 196 169 310 289 164 311 260 151 220 248 265 288 54 88 199 202 208 214 203 209
298 317 332 340 348 350 354 352 355 357 355 88 10 74 97 339 53 9 310 321 273 211 201 184 248 272 242 199 216 234 202 239 190 64 167 273 262 206 262 230 207 227 202 195 206 222 226
294 295 317 331 341 349 351 353 353 358 356 63 345 198 165 95 10 288 222 218 261 304 252 209 225 195 222 278 284 228 194 214 215 155 202 212 242 174 262 193 236 262 245 225 225 236 250
284 284 295 313 329 340 348 354 352 359 11 66 76 111 239 124 157 226 237 197 218 178 183 238 275 284 251 266 237 299 286 338 263 211 188 195 205 217 249 235 263 262 235 213 197 210 222
276 282 284 296 310 326 336 345 354 0 15 71 153 129 251 245 219 210 193 214 227 218 238 198 178 187 149 128 129 129 186 224 200 305 307 183 194 202 284 261 240 47 64 280 213 221 213
264 270 276 285 295 306 320 328 336 351 354 335 205 175 174 262 251 245 217 216 211 221 235 243 232 347 159 123 246 302 230 220 175 45 221 268 232 249 262 226 314 233 181 175 196 184 206
263 262 264 274 282 288 298 309 309 313 323 310 267 236 205 174 231 155 181 189 223 216 212 193 115 158 317 243 180 204 253 324 236 163 61 126 290 243 162 244 262 50 79 104 256 214 142
259 258 259 262 268 274 281 288 296 289 283 277 262 221 282 233 208 168 205 204 158 178 228 161 160 170 291 199 217 211 230 171 226 207 170 167 193 223 228 255 282 173 132 125 214 101 135
256 258 258 260 262 262 269 273 275 273 266 257 247 220 214 261 277 202 199 170 145 206 203 137 155 177 147 207 223 217 231 203 230 159 185 186 177 196 197 224 255 147 129 206 117 138 148
256 257 256 255 256 258 258 262 265 263 251 245 250 224 222 228 286 247 244 240 228 201 168 188 302 167 190 188 213 188 211 200 228 245 184 234 219 198 213 232 87 166 344 126 176 146 175